Location: Ajisawe
(8.4333°N, 4.3833°E)
Time: 22:32:03
(UTC+00:00)

Vanguard 2 Rocket - Pass Details

Date: 20 April 2021
Orbit: 554 x 3326 km, 32.9° (Epoch: 16 May)

Event Time Altitude Azimuth Distance (km) Brightness Sun altitude
Rises 19:16:01 0° 307° (NW) 7,002 12.7 -21.0°
Reaches altitude 10° 19:21:20 10° 310° (NW) 5,693 11.9 -22.3°
Maximum altitude 19:37:03 61° 27° (NNE) 2,164 8.6 -26.0°
Enters shadow 19:40:47 42° 85° (E) 2,259 8.4 -26.9°
Drops below altitude 10° 19:45:54 10° 106° (ESE) 3,370 - -28.1°
Sets 19:48:14 0° 110° (ESE) 4,066 - -28.6°
